Simultaneous Nadir Overpasses (SNOs) Predictions

Prediction of SNOs between GOES-17 and TERRA Satellite Orbit:

Table of predicted SNOs for the next 14.0 days since TLE Epoch: 1/13/2024
Index Date Time (GOES-17) GOES-17 Lat,Lon TERRA Lat,Lon Distance(km) Time Diff (sec)
1 01/13/2024 04:37:21 0.00,-104.66 0.81,-100.82 436.75 80
2 01/13/2024 16:57:24 -0.00,-104.67 0.19,-105.70 116.30 80
3 01/15/2024 16:43:11 0.00,-104.67 -0.64,-101.62 347.00 80
4 01/16/2024 05:03:23 0.00,-104.67 -0.41,-106.53 211.59 80
5 01/18/2024 04:43:50 0.00,-104.67 0.44,-102.45 251.97 80
6 01/18/2024 17:03:53 -0.00,-104.68 0.53,-107.33 301.28 80
7 01/20/2024 16:49:39 -0.00,-104.68 -0.29,-103.25 162.45 80
8 01/21/2024 05:09:50 0.01,-104.68 -0.74,-108.16 395.69 80
9 01/23/2024 04:50:16 0.00,-104.68 0.12,-104.08 68.08 80
10 01/23/2024 17:10:18 -0.01,-104.68 0.90,-108.95 485.52 80
11 01/25/2024 16:53:24 -0.00,-104.69 0.01,-104.88 21.23 80
